Location: Home
(42.5358°N, 72.7383°W)
Time: 19:25:49
(UTC-05:00)

Transit 4A - Pass Details

Date: 08 December 2021
Orbit: 863 x 981 km, 66.8° (Epoch: 23 January)

Event Time Altitude Azimuth Distance (km) Brightness Sun altitude
Rises 02:12:08 0° 333° (NNW) 3,613 - -53.3°
Reaches altitude 10° 02:14:48 10° 340° (NNW) 2,682 - -52.8°
Maximum altitude 02:20:45 42° 51° (NE) 1,343 - -51.8°
Drops below altitude 10° 02:26:46 10° 122° (ESE) 2,721 - -50.8°
Exits shadow 02:29:03 - 128° (SE) 3,516 11.2 -50.4°
Sets 02:29:29 0° 129° (SE) 3,670 11.3 -50.3°
